This is the latest recevied weather packets stored in our database for station/object KF0EZB. If no packets are shown the sender has not sent any weather packets the latest 10 day(s).
| Time | Temp. | Humidity | Pressure | Rain* | Wind** | Luminosity | Snow |
|---|---|---|---|---|---|---|---|
| 1778061839 | 6.11° C | 98% | 1016.6 hPa | 0 mm | - | 0 W/m² | - |
| 1778061536 | 6.11° C | 98% | 1016.4 hPa | 0 mm | - | 0 W/m² | - |
| 1778061235 | 6.11° C | 98% | 1016.2 hPa | 0 mm | - | 0 W/m² | - |
| 1778060931 | 6.11° C | 98% | 1016.2 hPa | 0 mm | - | 0 W/m² | - |
| 1778060630 | 6.11° C | 98% | 1016.6 hPa | 1.78 mm | - | 0 W/m² | - |
| 1778060327 | 6.11° C | 98% | 1016.4 hPa | 1.78 mm | - | 0 W/m² | - |
| 1778060024 | 6.11° C | 98% | 1016.2 hPa | 0 mm | - | 0 W/m² | - |
| 1778059722 | 6.11° C | 98% | 1016.4 hPa | 1.27 mm | - | 0 W/m² | - |
| 1778059420 | 6.11° C | 98% | 1016.5 hPa | 1.27 mm | - | 0 W/m² | - |
| 1778059116 | 6.11° C | 98% | 1016.4 hPa | 1.78 mm | - | 0 W/m² | - |
| 1778058814 | 6.11° C | 98% | 1016.5 hPa | 3.05 mm | - | 0 W/m² | - |
| 1778058511 | 6.11° C | 98% | 1016.6 hPa | 1.27 mm | - | 0 W/m² | - |
| 1778058209 | 6.11° C | 98% | 1016.5 hPa | 1.78 mm | - | 0 W/m² | - |
| 1778057905 | 6.11° C | 98% | 1016.4 hPa | 0 mm | - | 0 W/m² | - |
| 1778057601 | 6.11° C | 98% | 1016.4 hPa | 1.27 mm | - | 0 W/m² | - |
| 1778057298 | 6.11° C | 98% | 1016.6 hPa | 3.05 mm | - | 0 W/m² | - |
| 1778056995 | 6.67° C | 98% | 1016.5 hPa | 1.78 mm | - | 0 W/m² | - |
| 1778056691 | 6.67° C | 98% | 1016.5 hPa | 0 mm | - | 0 W/m² | - |
| 1778056389 | 6.67° C | 97% | 1016.3 hPa | 1.27 mm | - | 0 W/m² | - |
| 1778056087 | 6.67° C | 97% | 1016.8 hPa | 1.27 mm | - | 0 W/m² | - |
| 1778055782 | 6.67° C | 97% | 1016.6 hPa | 1.78 mm | - | 0 W/m² | - |
| 1778055479 | 6.67° C | 97% | 1016.1 hPa | 1.78 mm | - | 0 W/m² | - |
| 1778055177 | 6.67° C | 97% | 1016.3 hPa | 1.27 mm | - | 0 W/m² | - |
| 1778054875 | 6.11° C | 97% | 1016 hPa | 1.27 mm | - | 0 W/m² | - |
| 1778054571 | 6.11° C | 97% | 1016.1 hPa | 0 mm | - | 0 W/m² | - |
* Rain latest hour (hover to see other rain measurements)
** Current wind speed in m/s (hover to see current wind gust speed)